This is the latest recevied weather packets stored in our database for station/object ZS2JO. If no packets are shown the sender has not sent any weather packets the latest 10 day(s).
| Time | Temp. | Humidity | Pressure | Rain* | Wind** | Luminosity | Snow |
|---|---|---|---|---|---|---|---|
| 1778088040 | 13.33° C | 99% | 1006.7 hPa | 5.33 mm | - | 0 W/m² | - |
| 1778087737 | 13.33° C | 99% | 1006.8 hPa | 6.1 mm | - | 0 W/m² | - |
| 1778087434 | 13.33° C | 99% | 1007.3 hPa | 6.6 mm | - | 0 W/m² | - |
| 1778087132 | 13.89° C | 99% | 1007 hPa | 10.16 mm | - | 0 W/m² | - |
| 1778086824 | 13.89° C | 99% | 1006.8 hPa | 7.11 mm | - | 0 W/m² | - |
| 1778086522 | 13.89° C | 99% | 1007 hPa | 2.29 mm | - | 0 W/m² | - |
| 1778086218 | 13.89° C | 99% | 1006.7 hPa | 6.1 mm | - | 0 W/m² | - |
| 1778085915 | 13.33° C | 99% | 1007.1 hPa | 10.16 mm | - | 0 W/m² | - |
| 1778085613 | 13.33° C | 99% | 1006.8 hPa | 8.38 mm | - | 0 W/m² | - |
| 1778085308 | 13.33° C | 99% | 1007 hPa | 6.1 mm | - | 0 W/m² | - |
| 1778085004 | 13.33° C | 99% | 1006.8 hPa | 4.83 mm | - | 0 W/m² | - |
| 1778084700 | 13.33° C | 99% | 1006.5 hPa | 5.33 mm | - | 0 W/m² | - |
| 1778084392 | 13.33° C | 99% | 1006.7 hPa | 4.83 mm | - | 0 W/m² | - |
| 1778084090 | 13.33° C | 99% | 1007 hPa | 3.56 mm | - | 0 W/m² | - |
| 1778083787 | 13.33° C | 99% | 1006.4 hPa | 2.29 mm | - | 0 W/m² | - |
| 1778083484 | 13.33° C | 99% | 1006.5 hPa | 1.78 mm | - | 0 W/m² | - |
| 1778083181 | 13.33° C | 99% | 1006.4 hPa | 0.51 mm | - | 0 W/m² | - |
| 1778082879 | 13.33° C | 99% | 1006.1 hPa | 0 mm | - | 0 W/m² | - |
| 1778081765 | 13.33° C | 99% | 1005.8 hPa | 0 mm | - | 0 W/m² | - |
| 1778081463 | 13.33° C | 99% | 1005.7 hPa | 0 mm | - | 0 W/m² | - |
| 1778081160 | 13.33° C | 99% | 1005.6 hPa | 0 mm | - | 1 W/m² | - |
| 1778080858 | 13.33° C | 99% | 1005.3 hPa | 0 mm | - | 2 W/m² | - |
| 1778080556 | 13.33° C | 99% | 1005 hPa | 0 mm | - | 6 W/m² | - |
| 1778080252 | 13.33° C | 99% | 1005.4 hPa | 0 mm | - | 8 W/m² | - |
| 1778079949 | 13.33° C | 99% | 1004.8 hPa | 0 mm | - | 13 W/m² | - |
* Rain latest hour (hover to see other rain measurements)
** Current wind speed in m/s (hover to see current wind gust speed)